• In Latvia
  • List of Countries
  • For 7 days
  • Water Temperature
  • Satellite Maps
  • Weather Map
  • Weather Widgets
  • user-avatar
    Login

    Hourly Weather Punakha

    Today, 20 September, Thursday

    Time Temperature Precipitation Wind Pressure Humidity
    00:00 +16°C° 0 mm 1 mps 585 mmHg 81%
    01:00 +16°C° 0 mm 1 mps 585 mmHg 80%
    02:00 +15°C° 0 mm 1 mps 584 mmHg 79%
    03:00 +15°C° 0 mm 1 mps 584 mmHg 77%
    04:00 +15°C° 0 mm 1 mps 584 mmHg 75%
    05:00 +15°C° 0 mm 1 mps 585 mmHg 73%
    06:00 +15°C° 0 mm 1 mps 585 mmHg 70%
    07:00 +19°C° 0 mm 1 mps 587 mmHg 60%
    08:00 +22°C° 0 mm 1 mps 588 mmHg 49%
    09:00 +25°C° 0 mm 2 mps 589 mmHg 39%
    10:00 +26°C° 0 mm 2 mps 589 mmHg 38%
    11:00 +26°C° 0 mm 3 mps 589 mmHg 37%
    12:00 +27°C° 0 mm 3 mps 589 mmHg 38%
    13:00 +26°C° 0 mm 3 mps 589 mmHg 41%
    14:00 +26°C° 0 mm 3 mps 588 mmHg 44%
    15:00 +26°C° 0 mm 3 mps 587 mmHg 47%
    16:00 +24°C° 0.1 mm 2 mps 587 mmHg 56%
    17:00 +21°C° 0.1 mm 2 mps 586 mmHg 65%
    18:00 +20°C° 0.1 mm 1 mps 585 mmHg 75%
    19:00 +20°C° 0.1 mm 1 mps 586 mmHg 75%
    20:00 +19°C° 0.1 mm 1 mps 586 mmHg 76%
    21:00 +19°C° 0.1 mm 1 mps 586 mmHg 77%
    22:00 +19°C° 0.1 mm 1 mps 586 mmHg 77%
    23:00 +18°C° 0.1 mm 1 mps 586 mmHg 77%

    Tomorrow, 21 September, Friday

    Time Temperature Precipitation Wind Pressure Humidity
    00:00 +18°C° 0.1 mm 1 mps 586 mmHg 77%
    01:00 +18°C° 0.1 mm 1 mps 586 mmHg 78%
    02:00 +16°C° 0.1 mm 0 mps 585 mmHg 78%
    03:00 +15°C° 0.1 mm 0 mps 585 mmHg 79%
    04:00 +15°C° 0.1 mm 0 mps 585 mmHg 78%
    05:00 +15°C° 0.1 mm 0 mps 586 mmHg 78%
    06:00 +15°C° 0.1 mm 0 mps 586 mmHg 78%
    07:00 +19°C° 0.1 mm 1 mps 587 mmHg 72%
    08:00 +21°C° 0.1 mm 1 mps 588 mmHg 66%
    09:00 +23°C° 0.1 mm 2 mps 589 mmHg 60%
    10:00 +24°C° 0.1 mm 2 mps 589 mmHg 59%
    11:00 +24°C° 0.1 mm 2 mps 589 mmHg 58%
    12:00 +25°C° 0.1 mm 3 mps 589 mmHg 57%
    13:00 +25°C° 0.2 mm 3 mps 589 mmHg 60%
    14:00 +24°C° 0.2 mm 2 mps 588 mmHg 63%
    15:00 +24°C° 0.2 mm 2 mps 587 mmHg 66%
    16:00 +21°C° 0.1 mm 2 mps 587 mmHg 72%
    17:00 +21°C° 0.1 mm 1 mps 586 mmHg 78%
    18:00 +19°C° 0.1 mm 1 mps 586 mmHg 84%
    19:00 +19°C° 0 mm 1 mps 586 mmHg 84%
    20:00 +19°C° 0 mm 1 mps 587 mmHg 84%
    21:00 +18°C° 0 mm 1 mps 587 mmHg 84%
    22:00 +18°C° 0 mm 1 mps 587 mmHg 83%
    23:00 +18°C° 0 mm 1 mps 587 mmHg 81%

    Day after tomorrow, 22 September, Saturday

    Time Temperature Precipitation Wind Pressure Humidity
    00:00 +18°C° 0 mm 1 mps 587 mmHg 80%
    01:00 +18°C° 0 mm 1 mps 587 mmHg 80%
    02:00 +16°C° 0 mm 1 mps 587 mmHg 79%
    03:00 +16°C° 0 mm 1 mps 586 mmHg 79%
    04:00 +16°C° 0 mm 1 mps 586 mmHg 78%
    05:00 +16°C° 0 mm 1 mps 587 mmHg 78%
    06:00 +16°C° 0 mm 1 mps 587 mmHg 77%
    07:00 +19°C° 0 mm 1 mps 588 mmHg 70%
    08:00 +21°C° 0 mm 1 mps 589 mmHg 63%
    09:00 +24°C° 0 mm 1 mps 590 mmHg 56%
    10:00 +25°C° 0 mm 2 mps 590 mmHg 54%
    11:00 +26°C° 0 mm 2 mps 590 mmHg 52%
    12:00 +27°C° 0 mm 3 mps 590 mmHg 50%
    13:00 +26°C° 0.1 mm 3 mps 589 mmHg 54%
    14:00 +26°C° 0.1 mm 3 mps 588 mmHg 58%
    15:00 +25°C° 0.1 mm 3 mps 587 mmHg 62%
    16:00 +23°C° 0 mm 2 mps 587 mmHg 72%
    17:00 +21°C° 0 mm 2 mps 586 mmHg 81%
    18:00 +20°C° 0 mm 1 mps 586 mmHg 90%
    19:00 +20°C° 0 mm 1 mps 586 mmHg 90%
    20:00 +19°C° 0 mm 1 mps 587 mmHg 90%
    21:00 +17°C° 0 mm 0 mps 587 mmHg 89%
    22:00 +17°C° 0 mm 0 mps 587 mmHg 89%
    23:00 +18°C° 0 mm 1 mps 587 mmHg 88%

    23 September, Sunday

    Time Temperature Precipitation Wind Pressure Humidity
    00:00 +18°C° 0 mm 1 mps 587 mmHg 88%
    01:00 +18°C° 0 mm 1 mps 586 mmHg 87%
    02:00 +18°C° 0 mm 1 mps 586 mmHg 86%
    03:00 +18°C° 0 mm 1 mps 586 mmHg 85%
    04:00 +18°C° 0 mm 1 mps 586 mmHg 85%
    05:00 +16°C° 0 mm 1 mps 586 mmHg 84%
    06:00 +15°C° 0 mm 0 mps 586 mmHg 84%
    07:00 +19°C° 0 mm 1 mps 587 mmHg 76%
    08:00 +21°C° 0 mm 1 mps 588 mmHg 69%
    09:00 +24°C° 0 mm 1 mps 590 mmHg 62%
    10:00 +25°C° 0 mm 2 mps 589 mmHg 60%
    11:00 +25°C° 0 mm 2 mps 589 mmHg 58%
    12:00 +26°C° 0 mm 3 mps 589 mmHg 56%
    13:00 +26°C° 0.1 mm 3 mps 588 mmHg 61%
    14:00 +25°C° 0.1 mm 3 mps 587 mmHg 66%
    15:00 +24°C° 0.1 mm 2 mps 586 mmHg 71%
    16:00 +23°C° 0.1 mm 2 mps 585 mmHg 78%
    17:00 +21°C° 0.1 mm 1 mps 585 mmHg 86%
    18:00 +20°C° 0.1 mm 1 mps 584 mmHg 93%
    19:00 +20°C° 0 mm 1 mps 585 mmHg 93%
    20:00 +19°C° 0 mm 1 mps 585 mmHg 93%
    21:00 +17°C° 0 mm 0 mps 586 mmHg 93%
    22:00 +17°C° 0 mm 0 mps 586 mmHg 92%
    23:00 +17°C° 0 mm 0 mps 585 mmHg 91%

    24 September, Monday

    Time Temperature Precipitation Wind Pressure Humidity
    00:00 +19°C° 0 mm 1 mps 585 mmHg 90%
    01:00 +16°C° 0 mm 0 mps 585 mmHg 89%
    02:00 +16°C° 0 mm 0 mps 584 mmHg 87%
    03:00 +16°C° 0 mm 0 mps 584 mmHg 86%
    04:00 +16°C° 0 mm 0 mps 584 mmHg 86%
    05:00 +16°C° 0 mm 0 mps 584 mmHg 86%
    06:00 +15°C° 0 mm 0 mps 584 mmHg 86%
    07:00 +19°C° 0 mm 1 mps 585 mmHg 79%
    08:00 +21°C° 0 mm 1 mps 586 mmHg 72%
    09:00 +23°C° 0 mm 1 mps 588 mmHg 64%
    10:00 +24°C° 0 mm 2 mps 587 mmHg 62%
    11:00 +25°C° 0 mm 2 mps 587 mmHg 60%
    12:00 +26°C° 0 mm 3 mps 587 mmHg 58%
    13:00 +25°C° 0.2 mm 3 mps 586 mmHg 63%
    14:00 +24°C° 0.2 mm 2 mps 585 mmHg 68%
    15:00 +24°C° 0.2 mm 2 mps 584 mmHg 73%
    16:00 +21°C° 0.1 mm 2 mps 584 mmHg 80%
    17:00 +20°C° 0.1 mm 2 mps 583 mmHg 86%
    18:00 +20°C° 0.1 mm 1 mps 583 mmHg 93%
    19:00 +20°C° 0.1 mm 1 mps 584 mmHg 93%
    20:00 +20°C° 0.1 mm 1 mps 584 mmHg 93%
    21:00 +19°C° 0.1 mm 1 mps 585 mmHg 94%
    22:00 +19°C° 0 mm 1 mps 585 mmHg 94%
    23:00 +17°C° 0 mm 0 mps 584 mmHg 94%

    25 September, Tuesday

    Time Temperature Precipitation Wind Pressure Humidity
    00:00 +17°C° 0 mm 0 mps 584 mmHg 94%
    01:00 +16°C° 0 mm 0 mps 584 mmHg 93%
    02:00 +16°C° 0 mm 0 mps 583 mmHg 92%
    03:00 +16°C° 0 mm 0 mps 583 mmHg 92%
    04:00 +16°C° 0 mm 0 mps 583 mmHg 91%
    05:00 +15°C° 0 mm 0 mps 583 mmHg 91%
    06:00 +15°C° 0 mm 0 mps 583 mmHg 90%
    07:00 +19°C° 0 mm 1 mps 584 mmHg 83%
    08:00 +21°C° 0 mm 1 mps 585 mmHg 75%
    09:00 +23°C° 0 mm 1 mps 586 mmHg 67%
    10:00 +24°C° 0 mm 2 mps 586 mmHg 64%
    11:00 +25°C° 0 mm 2 mps 586 mmHg 62%
    12:00 +26°C° 0 mm 3 mps 586 mmHg 59%
    13:00 +25°C° 0.1 mm 3 mps 585 mmHg 63%
    14:00 +25°C° 0.1 mm 2 mps 584 mmHg 67%
    15:00 +24°C° 0.1 mm 2 mps 583 mmHg 72%
    16:00 +23°C° 0.1 mm 2 mps 583 mmHg 79%
    17:00 +20°C° 0.1 mm 2 mps 583 mmHg 86%
    18:00 +20°C° 0.1 mm 1 mps 583 mmHg 93%
    19:00 +20°C° 0.1 mm 1 mps 583 mmHg 93%
    20:00 +20°C° 0.1 mm 1 mps 583 mmHg 94%
    21:00 +19°C° 0.1 mm 1 mps 584 mmHg 94%
    22:00 +19°C° 0 mm 1 mps 584 mmHg 94%
    23:00 +19°C° 0 mm 1 mps 584 mmHg 94%
    Show more